| time (UTC) | temp F | wind direction | speed MPH | gust MPH | rain 1hr in | rain 24hr in | rain mn in | humidity % | barometer mb |
| 20260503180005 | 55 | 307 | 3.0 | 8.0 | 0.00 | 0.00 | 0.00 | 20 | 1022.6 |
| 20260503175005 | 55 | 301 | 3.0 | 5.0 | 0.00 | 0.00 | 0.00 | 18 | 1022.6 |
| 20260503174005 | 55 | 300 | 2.0 | 5.0 | 0.00 | 0.00 | 0.00 | 17 | 1022.6 |
| 20260503173005 | 55 | 312 | 2.0 | 5.0 | 0.00 | 0.00 | 0.00 | 18 | 1022.6 |
| 20260503172005 | 55 | 303 | 2.0 | 3.0 | 0.00 | 0.00 | 0.00 | 18 | 1022.5 |
| 20260503171005 | 55 | 305 | 1.0 | 4.0 | 0.00 | 0.00 | 0.00 | 16 | 1022.6 |
| 20260503151005 | 55 | 304 | 2.0 | 3.0 | 0.00 | 0.00 | 0.00 | 16 | 1022.4 |
| 20260503131004 | 58 | 315 | 1.0 | 3.0 | 0.00 | 0.00 | 0.00 | 34 | 1022.0 |
| 20260503081005 | 69 | 300 | 6.0 | 11.0 | 0.00 | 0.00 | 0.00 | 36 | 1020.5 |
| 20260503072004 | 69 | 292 | 9.0 | 14.0 | 0.00 | 0.00 | 0.00 | 32 | 1020.5 |
| 20260503071005 | 69 | 300 | 6.0 | 14.0 | 0.00 | 0.00 | 0.00 | 31 | 1020.4 |
| 20260503055005 | 67 | 307 | 4.0 | 11.0 | 0.00 | 0.00 | 0.00 | 26 | 1020.8 |
| 20260503054004 | 66 | 319 | 4.0 | 12.0 | 0.00 | 0.00 | 0.00 | 26 | 1020.9 |
| 20260503053004 | 67 | 300 | 5.0 | 10.0 | 0.00 | 0.00 | 0.00 | 23 | 1020.9 |
| 20260503052004 | 65 | 293 | 3.0 | 14.0 | 0.00 | 0.00 | 0.00 | 26 | 1021.0 |
| 20260503051004 | 65 | 303 | 4.0 | 11.0 | 0.00 | 0.00 | 0.00 | 23 | 1021.1 |
| 20260503050005 | 65 | 304 | 7.0 | 11.0 | 0.00 | 0.00 | 0.00 | 22 | 1021.3 |
| 20260503045004 | 64 | 303 | 6.0 | 10.0 | 0.00 | 0.00 | 0.00 | 20 | 1021.4 |
| 20260503044004 | 63 | 269 | 4.0 | 11.0 | 0.00 | 0.00 | 0.00 | 22 | 1021.5 |
| 20260503043005 | 62 | 273 | 7.0 | 12.0 | 0.00 | 0.00 | 0.00 | 22 | 1021.7 |
| 20260503042004 | 62 | 287 | 4.0 | 11.0 | 0.00 | 0.00 | 0.00 | 21 | 1021.9 |
| 20260503041004 | 62 | 299 | 5.0 | 12.0 | 0.00 | 0.00 | 0.00 | 19 | 1022.0 |
| 20260503040004 | 62 | 279 | 6.0 | 13.0 | 0.00 | 0.00 | 0.00 | 16 | 1022.1 |
| 20260503035004 | 62 | 300 | 5.0 | 15.0 | 0.00 | 0.00 | 0.00 | 18 | 1022.3 |
| 20260503034004 | 62 | 302 | 7.0 | 12.0 | 0.00 | 0.00 | 0.00 | 14 | 1022.4 |
| 20260503033004 | 62 | 308 | 7.0 | 14.0 | 0.00 | 0.00 | 0.00 | 15 | 1022.4 |
| 20260503032004 | 62 | 298 | 4.0 | 14.0 | 0.00 | 0.00 | 0.00 | 14 | 1022.6 |
| 20260503031004 | 61 | 307 | 7.0 | 15.0 | 0.00 | 0.00 | 0.00 | 12 | 1022.5 |
| 20260503030004 | 61 | 299 | 6.0 | 14.0 | 0.00 | 0.00 | 0.00 | 11 | 1022.7 |
| 20260503025004 | 61 | 302 | 8.0 | 11.0 | 0.00 | 0.00 | 0.00 | 10 | 1022.6 |
| 20260503024004 | 61 | 315 | 4.0 | 13.0 | 0.00 | 0.00 | 0.00 | 10 | 1022.8 |
| 20260503023004 | 62 | 294 | 7.0 | 12.0 | 0.00 | 0.00 | 0.00 | 10 | 1022.8 |
| 20260503022004 | 62 | 303 | 4.0 | 11.0 | 0.00 | 0.00 | 0.00 | 10 | 1023.0 |
| 20260503021004 | 62 | 317 | 4.0 | 10.0 | 0.00 | 0.00 | 0.00 | 10 | 1022.9 |
| 20260503020004 | 62 | 284 | 3.0 | 8.0 | 0.00 | 0.00 | 0.00 | 10 | 1023.0 |
| 20260503015004 | 79 | 307 | 3.0 | 10.0 | 0.00 | 0.00 | 0.00 | 10 | 1022.9 |
| 20260503014004 | 61 | 298 | 2.0 | 11.0 | 0.00 | 0.00 | 0.00 | 10 | 1022.9 |
| 20260503013005 | 61 | 312 | 2.0 | 11.0 | 0.00 | 0.00 | 0.00 | 10 | 1023.0 |
| 20260503012004 | 60 | 309 | 6.0 | 13.0 | 0.00 | 0.00 | 0.00 | 10 | 1022.9 |
| 20260503011004 | 60 | 312 | 4.0 | 9.0 | 0.00 | 0.00 | 0.00 | 10 | 1022.9 |
| 20260503010004 | 59 | 303 | 5.0 | 9.0 | 0.00 | 0.00 | 0.00 | 10 | 1022.9 |
| 20260503005004 | 58 | 295 | 5.0 | 8.0 | 0.00 | 0.00 | 0.00 | 10 | 1022.9 |
| 20260503004004 | 57 | 310 | 4.0 | 9.0 | 0.00 | 0.00 | 0.00 | 10 | 1022.9 |
| 20260503003004 | 56 | 302 | 3.0 | 6.0 | 0.00 | 0.00 | 0.00 | 10 | 1022.9 |
| 20260503002003 | 54 | 299 | 4.0 | 7.0 | 0.00 | 0.00 | 0.00 | 10 | 1022.7 |
| 20260503001004 | 54 | 309 | 4.0 | 8.0 | 0.00 | 0.00 | 0.00 | 10 | 1022.7 |
| 20260503000005 | 53 | 293 | 4.0 | 7.0 | 0.00 | 0.00 | 0.00 | 10 | 1022.5 |
| 20260502235004 | 52 | 312 | 4.0 | 6.0 | 0.00 | 0.00 | 0.00 | 10 | 1022.4 |
| 20260502234004 | 51 | 304 | 2.0 | 6.0 | 0.00 | 0.00 | 0.00 | 10 | 1022.3 |
| 20260502233004 | 49 | 311 | 4.0 | 6.0 | 0.00 | 0.00 | 0.00 | 10 | 1022.2 |
| 20260502232004 | 49 | 299 | 2.0 | 5.0 | 0.00 | 0.00 | 0.00 | 10 | 1022.0 |
| 20260502231003 | 49 | 303 | 4.0 | 6.0 | 0.00 | 0.00 | 0.00 | 10 | 1022.1 |
| 20260502230004 | 48 | 282 | 2.0 | 5.0 | 0.00 | 0.00 | 0.00 | 10 | 1021.9 |
| 20260502225004 | 48 | 302 | 3.0 | 4.0 | 0.00 | 0.00 | 0.00 | 10 | 1021.8 |
| 20260502224003 | 48 | 279 | 3.0 | 4.0 | 0.00 | 0.00 | 0.00 | 10 | 1021.7 |
| 20260502223004 | 47 | 268 | 2.0 | 3.0 | 0.00 | 0.00 | 0.00 | 10 | 1021.5 |
| 20260502222004 | 47 | 278 | 1.0 | 2.0 | 0.00 | 0.00 | 0.00 | 10 | 1021.5 |
| 20260502221004 | 47 | 268 | 0.0 | 2.0 | 0.00 | 0.00 | 0.00 | 11 | 1021.5 |
| 20260502220004 | 46 | 257 | 0.0 | 2.0 | 0.00 | 0.00 | 0.00 | 14 | 1021.5 |
| 20260502215003 | 45 | 0 | 0.0 | 0.0 | 0.00 | 0.00 | 0.00 | 19 | 1021.4 |
| 20260502214004 | 46 | 225 | 0.0 | 1.0 | 0.00 | 0.00 | 0.00 | 22 | 1021.4 |
| 20260502213003 | 46 | 0 | 0.0 | 0.0 | 0.00 | 0.00 | 0.00 | 22 | 1021.4 |
| 20260502212004 | 47 | 270 | 0.0 | 1.0 | 0.00 | 0.00 | 0.00 | 23 | 1021.2 |
| 20260502211004 | 48 | 264 | 0.0 | 3.0 | 0.00 | 0.00 | 0.00 | 24 | 1021.1 |
| 20260502210004 | 49 | 263 | 1.0 | 2.0 | 0.00 | 0.00 | 0.00 | 23 | 1021.2 |
| 20260502205004 | 49 | 282 | 1.0 | 4.0 | 0.00 | 0.00 | 0.00 | 24 | 1021.0 |
| 20260502204003 | 50 | 291 | 2.0 | 4.0 | 0.00 | 0.00 | 0.00 | 24 | 1021.0 |
| 20260502203003 | 50 | 305 | 3.0 | 4.0 | 0.00 | 0.00 | 0.00 | 25 | 1021.0 |
| 20260502202004 | 51 | 297 | 2.0 | 4.0 | 0.00 | 0.00 | 0.00 | 24 | 1021.0 |
| 20260502201003 | 50 | 297 | 2.0 | 4.0 | 0.00 | 0.00 | 0.00 | 27 | 1020.9 |
| 20260502200004 | 49 | 293 | 1.0 | 3.0 | 0.00 | 0.00 | 0.00 | 29 | 1021.1 |
| 20260502195003 | 49 | 302 | 1.0 | 2.0 | 0.00 | 0.00 | 0.00 | 32 | 1020.9 |
| 20260502194005 | 49 | 287 | 2.0 | 2.0 | 0.00 | 0.00 | 0.00 | 34 | 1021.0 |
| 20260502193005 | 48 | 263 | 1.0 | 2.0 | 0.00 | 0.00 | 0.00 | 38 | 1021.0 |
| 20260502192005 | 48 | 0 | 0.0 | 0.0 | 0.00 | 0.00 | 0.00 | 39 | 1021.0 |
| 20260502191005 | 48 | 0 | 0.0 | 0.0 | 0.00 | 0.00 | 0.00 | 42 | 1021.1 |
| 20260502190005 | 48 | 0 | 0.0 | 0.0 | 0.00 | 0.00 | 0.00 | 43 | 1021.0 |
| 20260502185005 | 49 | 0 | 0.0 | 0.0 | 0.00 | 0.00 | 0.00 | 44 | 1021.1 |
| 20260502184005 | 49 | 289 | 0.0 | 1.0 | 0.00 | 0.00 | 0.00 | 45 | 1021.1 |
| 20260502183005 | 49 | 314 | 0.0 | 2.0 | 0.00 | 0.00 | 0.00 | 47 | 1021.0 |
| 20260502182005 | 50 | 0 | 0.0 | 0.0 | 0.00 | 0.00 | 0.00 | 47 | 1021.0 |
| 20260502181005 | 50 | 274 | 0.0 | 2.0 | 0.00 | 0.00 | 0.00 | 49 | 1021.1 |